[Date Prev][Date Next][Thread Prev][Thread Next][Date Index][Thread Index]

[jamsat-news:1647] jas2info #258



========================   最新情報   ==============================

        Last updated :7Jan.2002  11:10(JST)   #258

====================================================================
   
1)アマチュア通信衛星情報、FOシリーズの軌道要素、テレメトリ、QSOの
   状況等をまとめてみました.
   
 FO−29の2002年1月6日(日)の18:29(JST)のパスでは
JARLのホームページのとうりアナログ運用でした。 今日までの観測した
テレメトリーと最終の分析結果を報告しておきます。

AS26612C     06Jan2002

18:32-18:45(JST)

AOS  MEL  LOS    Elev
 26   95  164    27.1

Freq. 435.802-.785MHz
                                          00 87 87 87 92 83 94 8E 91 94 8F 
HI HI AE 07 88 55 00 D4 0D A4 09 75 62 A4 00 87 87 86 92 7A 94 8E 91 95 8F 
HI HI AE 07 88 55 00 D4 0D A4 09 75 67 AA 00 87 87 86 92 87 94 8E 91 95 8F 
HI HI AE 07 88 55 00 D4 0D A4 09 75 6C AE 00 87 87 86 91 7B 94 8F 91 95 8F 
HI HI AE 07 88 55 00 D4 0D A4 09 75 71 AF 03 86 87 86 92 74 94 8F 92 95 90 
HI HI AE 07 88 55 00 D4 0D A4 09 75 76 B0 2B 6F 89 87 94 7B 95 8F 92 95 8F 
HI HI AE 07 88 55 00 D4 0D A4 09 75 7B B0 77 4B 8D 8A 97 84 95 8F 92 95 8F 
HI HI AE 07 88 55 00 D4 0D A4 09 75 7E AE 73 4F 8E 8C 99 83 95 90 92 95 8F 
HI HI AE 07 88 55 00 D4 0D A4 09 75 81 AB 72 4E 8F 8E 9B 89 95 90 92 95 8F   
HI HI AE 07 88 55 00 D4 0D A4 09 75 83 A9 75 4D 91 8E 9C 95 95 90 92 96 8F 
HI HI AE 07 88 55 00 D4 0D A4 09 75 83 A6 76 4B 91 8F 9C 77 96 91 92 96 8F 
HI HI AE 07 88 55 00 D4 0D A4 09 75 82 A5 75 4D 92 8F 9D 83 96 91 93 96 8F 
HI HI AE 07 88 55 00 D4 0D A5 09 75 80 A4 75 4D 92 8F B0 99 96 91 93 96 8F 
HI HI AE 07 88 55 00 D4 0D A4 09 75 7C A2 74 5F 90 8E B0 92 96 91 93 96 8F 
HI HI AE C7 88 55 00 D4 0D A4 09 75 77 A2 73 5F 90 8E B0 7B 96 91 93 96 8F 
HI HI AE C7 88 55 00 D4 0D A4 09 75 71 A3 6F 5E 90 8E B0 79 96 91 93 96 90 
HI HI AE C7 88 55 00 D4 0D A4 09 75 6B A4 6A 5F 90 8E B0 6A 96 91 93 96 8F 
HI HI AE C7 88 55 00 D4 0D A4 09 75 64 A4 61 5E 90 8E B0 89 96 91 93 97 90

AS26558C     02Jan2002

18:40-18:55(JST)

AOS  MEL  LOS    Elev
 23   96  169    32.6

Freq. 435.803-.785MHz

HI HI AE 07 88 55 00 D4 46 DC 09 44 9D 47 00 88 88 87 93 64 94 8D 8D 93 8F
HI HI AE 07 88 55 00 D4 46 DC 09 44 A0 56 00 88 88 87 92 6E 94 8D 8D 93 8F 
HI HI AE 07 88 55 00 D4 46 DC 09 44 A2 66 00 87 87 87 92 80 94 8E 8E 93 8F 
HI HI AE 07 88 55 00 D4 46 DC 09 44 A2 76 00 87 87 86 92 71 94 8E 8E 93 8F 
HI HI AE 07 88 55 00 D4 46 DC 09 44 9F 86 00 88 87 86 92 78 94 8E 8E 94 8F
HI HI AE 07 88 55 00 D4 46 DC 09 44 9A 93 00 88 87 86 91 8D 95 8F 8E 94 8F 
HI HI AE 07 88 55 00 D4 46 DC 09 44 93 9F 03 84 87 86 91 76 95 8F 8F 94 8F 
HI HI AE 07 88 55 00 D4 46 DC 09 44 89 A9 38 68 89 87 94 68 95 8F 8F 94 8E 
HI HI AE 07 88 55 00 D4 46 DC 09 44 7E B0 6F 60 8C 8A 97 98 95 8F 8F 94 8F 
HI HI AE 07 88 55 00 D4 46 DC 09 44 73 B1 71 4E 8E 8B 97 84 95 90 8F 94 8E 
HI HI AE 07 88 55 00 D4 46 DC 09 44 66 AE 72 4E 90 8D 9B 7A 95 90 90 95 8F 
HI HI AE 07 88 55 00 D4 46 DC 09 44 5B A7 72 4F 91 8E 9B 78 96 90 90 95 8F 
HI HI AE 07 88 55 00 D4 46 DC 09 44 50 9C 6F 1E 91 8F 9E 7E 96 90 91 95 8F 
HI HI AE 07 88 55 00 D4 46 DC 09 44 46 8E 6E 50 91 8F 9C 7B 96 90 91 95 8F 
HI HI AE 07 88 55 00 D4 46 DC 09 44 41 7F 6A 52 91 8F 9C 79 96 90 91 96 8F 
HI HI AE 07 88 55 00 D4 46 DC 09 44 3B 70 65 54 91 8F 9C 7D 96 91 91 95 8F 
HI HI AE 07 88 55 00 D4 46 DC 09 44 3A 62 61 56 91 8F 9C A3 96 91 92 96 8F 
HI HI AE 07 88 55 00 D4 46 DC 09 44 3B 56 61 56 92 8F 9C 7B 96 91 92 96 8F 
HI HI AE C7 88 55 00 D4 46 DC 09 44 3F 4C 64 5F 90 8E B0 81 96 91 92 96 8F 
HI HI AE C7 88 55 00 D4 46 LC 09 44 45 47 6B 5F 90 8E B0 72 96 91 92 96 8F 
HI HI AE C7 88 55 00 D4 

------------------------ FO-29の軌道要素 ------------------------------        
 
  ■ 軌道要素1:「jamsat−keps:1065」より         
          SB KEPS @ AMSAT  $ORB02003.N
          2Line Orbital Elements 02003.AMSAT

HR AMSAT ORBITAL ELEMENTS FOR AMATEUR SATELLITES IN NASA FORMAT
FROM WA5QGD FORT WORTH,TX January 3, 2002
SEND SUBSCRIBE/UNSUBSCRIBE TO majordomo@amsat.org ONLY
BID: ORB02003.N

 DECODE 2-LINE ELSETS WITH THE FOLLOWING KEY:
 1 AAAAAU 00  0  0 BBBBB.BBBBBBBB  .CCCCCCCC  00000-0  00000-0 0  DDDZ
 2 AAAAA EEE.EEEE FFF.FFFF GGGGGGG HHH.HHHH III.IIII JJ.JJJJJJJJKKKKKZ
 KEY: A-CATALOGNUM B-EPOCHTIME C-DECAY D-ELSETNUM E-INCLINATION F-RAAN
 G-ECCENTRICITY H-ARGPERIGEE I-MNANOM J-MNMOTION K-ORBITNUM Z-CHECKSUM

FO-29
1 24278U 96046B   02002.59786494  .00000185  00000-0  22498-3 0 04812
2 24278 098.5147 205.4907 0350405 204.8030 153.5903 13.52811041265601

 ■ 軌道要素2:「jamsat−keps:1066」より
        SB KEPS @ AMSAT  $ORB02003.O
        Orbital Elements  02003.OSCAR

HR AMSAT ORBITAL ELEMENTS FOR OSCAR SATELLITES
FROM WA5QGD FORT WORTH,TX January 3, 2002
SEND SUBSCRIBE/UNSUBSCRIBE TO majordomo@amsat.org ONLY
BID: ORB02003.O
TO ALL RADIO AMATEURS BT

Satellite: FO-29
Catalog number: 24278
Epoch time:      02002.59786494
Element set:    0481
Inclination:      098.5147 deg
RA of node:       205.4907 deg
Eccentricity:    0.0350405
Arg of perigee:   204.8030 deg
Mean anomaly:     153.5903 deg
Mean motion:   13.52811041 rev/day
Decay rate:       1.85e-06 rev/day^2
Epoch rev:           26560
Checksum:              293

-------------------  FO-29(JAS-2)のテレメトリに関する情報  ---------------------- 
 
2)上記2002年1月6日(日)のテレメトリの最終行を分析しておきます.

AS26612C     06Jan2002
18:32-18:45(JST)
AOS  MEL  LOS    Elev
 26   95  164    27.1
Freq. 435.802-.785MHz

HI HI AE C7 88 55 00 D4 0D A4 09 75 64 A4 61 5E 90 8E B0 89 96 91 93 97 90

テレメトリ   内 容        換算数値 単 位
3C	磁気センサーZ軸=	49019.6	[nT]
3D	磁気センサX軸	=	80392.1	[nT]
4A	太陽電池発生電流=	 951.0	[mA]
4B	B充放電電流	=	 -157.6	[mA]
4C	B端子電圧	=	   15.5	[V]
4D	B中間端子電圧	=	    6.8	[V]
5A	バス電圧	=	   17.3	[V]
5B	JTA送信電力	=	  792.4	[mW]
5C 	構体温度1	=	   23.6	[℃]
5D	構体温度2	=	   25.6	[℃]
6A	構体温度3	=	   24.8	[℃]
6B	構体温度4	=	   23.2	[℃]
6C	Bセル温度	=	   26.0	[℃]

 ========================== FO-29(ふじ3号)のテレメトリ分析、QSO情報等 =====================
   
 3)[jamsat-bb:10596] FO-29 CW telemetry Dec 25-28 において脇田美根夫氏( JE9PEL/1)がテレメトリ
  解析グラフや新しく開発したソフトでの解析結果を紹介されてるので転載させて頂きます。

●[jamsat-bb:10596] FO-29 CW telemetry Dec 25-28

受信:高山 秀造  JH6MME  , in jas2info #257
解析:脇田美根夫 JE9PEL/1, by Fo29cwt2.exe (Ver 2.43)

Line  1 -  5, 25Dec2001, 18:59-19:13(JST), 435.803-.785MHz
Line  6 - 10, 26Dec2001, 18:08-18:16(JST), 435.797-.788MHz
Line 11 - 15, 27Dec2001, 18:54-19:09(JST), 435.804-.786MHz
Line 16 - 20, 28Dec2001, 17:59-18:11(JST), 435.802-.788MHz

(Top of every line is "HI HI")
AE 07 88 55 00 D4 E9 16 09 02 8F 46 54 5D 8B 89 95 6D 94 90 95 96 90
AE 07 88 55 00 D4 E9 16 09 02 62 3E 61 57 90 8E 9B 6C 95 92 96 97 90
AE 07 88 55 00 D4 E9 16 09 02 59 3E 65 55 91 8E 9B 8D 95 92 96 97 90
AE 07 88 55 00 D4 E9 16 09 02 52 3E 68 56 91 8F 9C 63 95 92 97 97 90
AE 07 88 55 00 D4 E9 16 09 02 46 45 6E 50 92 8F 9D 5B 95 93 97 97 90
AE 07 88 55 00 D4 00 00 09 00 4D 8D 5C 5A 8D 8B 98 85 99 95 90 94 91
AE 07 88 55 00 D4 00 00 09 00 4E 8E 5B 5A 8E 8C 99 97 99 95 90 94 91
AE 07 88 55 00 D4 00 00 09 00 53 94 5D 59 8F 8D 9A 7E 9A 95 91 95 91
AE 07 88 55 00 D4 00 00 09 00 55 96 60 58 90 8E 9B 72 9A 96 91 95 91
AE 07 88 55 00 D4 00 00 09 00 58 99 64 57 91 8F 9B 83 9A 96 92 96 91
AE 07 88 55 00 D4 1B FD 09 51 6B 9F 5A 5A 90 8E 9A 79 91 91 98 95 8F
AE 07 88 55 00 D4 1B FD 09 51 60 99 5B 5A 90 8E 9B 80 91 92 98 95 8F
AE 07 88 55 00 D4 1B FD 09 51 57 90 5D 5B 90 8E 9B 7A 91 92 98 96 90
AE 07 88 55 00 D4 1B FD 09 51 4F 85 5F 59 90 8E 9B 6F 91 92 99 96 90
AE 07 88 55 00 D4 1B FD 09 51 49 78 60 57 91 8F 9C 7F 92 92 99 96 90
AE 07 88 55 00 D4 3B 3B 09 73 9A 7A 5B 5B 8F 8D 9A 61 95 93 96 97 92
AE 07 88 55 00 D4 3B 3B 09 73 96 85 5D 58 8F 8D 9A 6B 95 93 96 97 92
AE 07 88 55 00 D4 3B 3B 09 73 90 8F 60 57 90 8E 9B 70 96 93 96 98 92
AE 07 88 55 00 D4 3B 3B 09 73 87 98 63 56 90 8E 9B 82 96 93 97 98 92
AE 07 88 55 00 D4 3B 36 09 73 7D 9F 65 55 91 8F 9C 75 96 94 97 98 92

アナログ送信電力 (# 20mW)
 ( Data 1 )   610.4[mW] : ###############################
 ( Data 2 )   603.9[mW] : ##############################
 ( Data 3 )   818.4[mW] : #########################################
 ( Data 4 )   545.4[mW] : ###########################
 ( Data 5 )   493.4[mW] : #########################
 ( Data 6 )   766.4[mW] : ######################################
 ( Data 7 )   883.4[mW] : ############################################
 ( Data 8 )   720.9[mW] : ####################################
 ( Data 9 )   642.9[mW] : ################################
 ( Data10 )   753.4[mW] : ######################################
 ( Data11 )   688.4[mW] : ##################################
 ( Data12 )   733.9[mW] : #####################################
 ( Data13 )   694.9[mW] : ###################################
 ( Data14 )   623.4[mW] : ###############################
 ( Data15 )   727.4[mW] : ####################################
 ( Data16 )   532.4[mW] : ###########################
 ( Data17 )   597.4[mW] : ##############################
 ( Data18 )   629.9[mW] : ###############################
 ( Data19 )   746.9[mW] : #####################################
 ( Data20 )   662.4[mW] : #################################

--------------------------------------------
Name : JE9PEL/1 脇田
Mail : ei7m-wkt@asahi-net.or.jp
URL  : http://www.asahi-net.or.jp/~ei7m-wkt/
QTH  : Yokohama, Japan
Date : Dec 29, 2001
-------------------------------------------- 
-------------
JAMSAT BB Mailing List
http://www.jamsat.or.jp/infoserv/mlist.html

 ===============================================================================
   4)JARL のホームページに運用予定が記載されていましたのでご紹介します.
       ( http://www.jarl.or.jp/Japanese/3_Fuji/new/uy.htm )
       
        ふじ3号(JAS−2)の運用          

       *** 運用予定について ***

  平成13年      平成14年
 12月4日(火) 〜 3月31日(日)アナログ系運用

  *なお,運用予定は都合により,変更することがありますので,
   あらかじめご了承願います。

 照会先 : lab@jarl.or.jp

 最新の情報はテレホンサービス(03−3942−1000)をお聞きください。  
 以後の運用につきましては平成14年4月上旬にお知らせいたします 
     
-----------------------    FO−20(JAS-1b)道要素   -------------------------
  
  ■ 軌道要素1 :出典はFO-29「ふじ3号」に同じ.
  
FO-20
1 20480U 90013C   02002.59799060  .00000052  00000-0  19418-3 0  3667
2 20480  99.0309  38.5134 0539628 217.5439 138.6809 12.83306380557673
 
